| time (UTC) | temp C | wind direction | speed KPH | gust KPH | rain 1hr cm | rain 24hr cm | rain mn cm | humidity % | barometer mb |
| 20260507113305 | 12 | 22 | 0.0 | 0.0 | 0.00 | 0.05 | 0.00 | 71 | 1011.4 |
| 20260507112307 | 12 | 45 | 0.0 | 0.0 | 0.00 | 0.05 | 0.00 | 71 | 1011.4 |
| 20260507111804 | 12 | 22 | 0.0 | 0.0 | 0.00 | 0.05 | 0.00 | 73 | 1011.4 |
| 20260507110303 | 12 | 0 | 0.0 | 0.0 | 0.00 | 0.05 | 0.00 | 74 | 1011.6 |
| 20260507105803 | 12 | 0 | 0.0 | 0.0 | 0.00 | 0.05 | 0.00 | 75 | 1011.6 |
| 20260507105306 | 11 | 337 | 0.0 | 0.0 | 0.00 | 0.05 | 0.00 | 74 | 1011.4 |
| 20260507104802 | 12 | 337 | 0.0 | 0.0 | 0.00 | 0.05 | 0.00 | 74 | 1011.5 |
| 20260507104302 | 12 | 22 | 0.0 | 0.0 | 0.00 | 0.05 | 0.00 | 74 | 1011.4 |
| 20260507103802 | 12 | 22 | 0.0 | 0.0 | 0.00 | 0.05 | 0.00 | 74 | 1011.5 |
| 20260507103301 | 12 | 315 | 0.0 | 0.0 | 0.00 | 0.05 | 0.00 | 76 | 1011.4 |
| 20260507102801 | 12 | 0 | 0.0 | 0.0 | 0.00 | 0.05 | 0.00 | 76 | 1011.4 |
| 20260507102301 | 12 | 0 | 0.0 | 0.0 | 0.00 | 0.05 | 0.00 | 74 | 1011.4 |
| 20260507101800 | 12 | 0 | 0.0 | 0.0 | 0.00 | 0.05 | 0.00 | 74 | 1011.4 |
| 20260507101300 | 12 | 0 | 0.0 | 0.0 | 0.00 | 0.05 | 0.00 | 74 | 1011.4 |
| 20260507100259 | 12 | 45 | 0.0 | 0.0 | 0.00 | 0.05 | 0.00 | 77 | 1011.3 |
| 20260507095759 | 12 | 45 | 0.0 | 0.0 | 0.00 | 0.05 | 0.00 | 77 | 1011.3 |
| 20260507095259 | 11 | 22 | 0.0 | 0.0 | 0.00 | 0.05 | 0.00 | 77 | 1011.3 |
| 20260507094759 | 11 | 22 | 0.0 | 0.0 | 0.00 | 0.05 | 0.00 | 78 | 1011.4 |
| 20260507093758 | 11 | 45 | 0.0 | 0.0 | 0.00 | 0.05 | 0.00 | 79 | 1011.3 |
| 20260507093258 | 11 | 22 | 0.0 | 0.0 | 0.00 | 0.05 | 0.00 | 80 | 1011.2 |
| 20260507092758 | 10 | 22 | 0.0 | 0.0 | 0.00 | 0.05 | 0.00 | 81 | 1011.1 |
| 20260507092257 | 10 | 337 | 0.0 | 0.0 | 0.00 | 0.05 | 0.00 | 81 | 1011.0 |
| 20260507091757 | 10 | 0 | 0.0 | 0.0 | 0.00 | 0.05 | 0.00 | 80 | 1011.0 |
| 20260507091257 | 10 | 337 | 0.0 | 0.0 | 0.00 | 0.05 | 0.00 | 80 | 1011.0 |
| 20260507090756 | 10 | 22 | 0.0 | 0.0 | 0.00 | 0.05 | 0.00 | 81 | 1010.9 |
| 20260507090256 | 10 | 22 | 0.0 | 0.0 | 0.00 | 0.05 | 0.00 | 81 | 1010.9 |
| 20260507085756 | 10 | 22 | 0.0 | 0.0 | 0.00 | 0.05 | 0.00 | 81 | 1010.8 |
| 20260507085256 | 10 | 22 | 0.0 | 0.0 | 0.00 | 0.05 | 0.00 | 81 | 1010.9 |
| 20260507084755 | 10 | 0 | 0.0 | 0.0 | 0.00 | 0.05 | 0.00 | 82 | 1010.8 |
| 20260507084255 | 10 | 0 | 0.0 | 0.0 | 0.00 | 0.05 | 0.00 | 82 | 1010.8 |
| 20260507083755 | 10 | 22 | 0.0 | 0.0 | 0.00 | 0.05 | 0.00 | 83 | 1010.9 |
| 20260507083254 | 10 | 0 | 0.0 | 0.0 | 0.00 | 0.05 | 0.00 | 83 | 1010.8 |
| 20260507082754 | 9 | 22 | 0.0 | 0.0 | 0.00 | 0.05 | 0.00 | 85 | 1010.8 |
| 20260507082254 | 9 | 0 | 0.0 | 0.0 | 0.00 | 0.05 | 0.00 | 84 | 1010.7 |
| 20260507081253 | 8 | 315 | 0.0 | 0.0 | 0.00 | 0.05 | 0.00 | 85 | 1010.4 |
| 20260507080753 | 8 | 337 | 0.0 | 0.0 | 0.00 | 0.05 | 0.00 | 86 | 1010.3 |
| 20260507080253 | 8 | 337 | 0.0 | 0.0 | 0.00 | 0.05 | 0.00 | 86 | 1010.1 |
| 20260507075752 | 8 | 0 | 0.0 | 0.0 | 0.00 | 0.10 | 0.00 | 87 | 1010.2 |
| 20260507075252 | 8 | 337 | 0.0 | 0.0 | 0.00 | 0.10 | 0.00 | 88 | 1010.3 |
| 20260507074752 | 8 | 315 | 0.0 | 0.0 | 0.00 | 0.10 | 0.00 | 88 | 1010.2 |
| 20260507074252 | 7 | 337 | 0.0 | 0.0 | 0.00 | 0.10 | 0.00 | 89 | 1010.2 |
| 20260507073751 | 7 | 337 | 0.0 | 0.0 | 0.00 | 0.10 | 0.00 | 89 | 1010.1 |
| 20260507073251 | 7 | 337 | 0.0 | 0.0 | 0.00 | 0.10 | 0.00 | 89 | 1010.1 |
| 20260507072751 | 7 | 337 | 0.0 | 0.0 | 0.00 | 0.10 | 0.00 | 89 | 1010.2 |
| 20260507072251 | 7 | 337 | 0.0 | 0.0 | 0.00 | 0.10 | 0.00 | 90 | 1010.0 |
| 20260507071750 | 7 | 337 | 0.0 | 0.0 | 0.00 | 0.10 | 0.00 | 90 | 1010.1 |
| 20260507071539 | 7 | 337 | 0.0 | 0.0 | 0.00 | 0.10 | 0.00 | 90 | 1010.0 |
| 20260507071250 | 7 | 337 | 0.0 | 0.0 | 0.00 | 0.10 | 0.00 | 90 | 1010.0 |
| 20260507070750 | 7 | 337 | 0.0 | 0.0 | 0.00 | 0.10 | 0.00 | 91 | 1010.1 |
| 20260507070249 | 7 | 337 | 0.0 | 0.0 | 0.00 | 0.10 | 0.00 | 91 | 1010.0 |
| 20260507065749 | 7 | 337 | 0.0 | 0.0 | 0.00 | 0.10 | 0.00 | 91 | 1009.9 |
| 20260507065249 | 7 | 337 | 0.0 | 0.0 | 0.00 | 0.10 | 0.00 | 91 | 1010.0 |
| 20260507064248 | 6 | 337 | 0.0 | 0.0 | 0.00 | 0.10 | 0.00 | 92 | 1009.7 |
| 20260507063748 | 6 | 337 | 0.0 | 0.0 | 0.00 | 0.10 | 0.00 | 92 | 1009.9 |
| 20260507063248 | 6 | 337 | 0.0 | 0.0 | 0.00 | 0.10 | 0.00 | 92 | 1009.7 |
| 20260507062747 | 6 | 337 | 0.0 | 0.0 | 0.00 | 0.10 | 0.00 | 92 | 1009.7 |
| 20260507062247 | 6 | 337 | 0.0 | 0.0 | 0.00 | 0.10 | 0.00 | 92 | 1009.8 |
| 20260507061747 | 6 | 337 | 0.0 | 0.0 | 0.00 | 0.10 | 0.00 | 92 | 1009.8 |
| 20260507061247 | 6 | 337 | 0.0 | 0.0 | 0.00 | 0.10 | 0.00 | 92 | 1009.9 |
| 20260507060746 | 6 | 337 | 0.0 | 0.0 | 0.00 | 0.10 | 0.00 | 91 | 1009.9 |
| 20260507060246 | 6 | 337 | 0.0 | 0.0 | 0.00 | 0.10 | 0.00 | 91 | 1009.9 |
| 20260507055746 | 6 | 337 | 0.0 | 0.0 | 0.00 | 0.10 | 0.00 | 91 | 1009.8 |
| 20260507055245 | 6 | 337 | 0.0 | 0.0 | 0.00 | 0.10 | 0.00 | 91 | 1009.8 |
| 20260507054745 | 5 | 337 | 0.0 | 0.0 | 0.00 | 0.10 | 0.00 | 91 | 1009.7 |
| 20260507053745 | 5 | 337 | 0.0 | 0.0 | 0.00 | 0.10 | 0.00 | 91 | 1009.4 |
| 20260507053244 | 5 | 337 | 0.0 | 0.0 | 0.00 | 0.10 | 0.00 | 91 | 1009.4 |
| 20260507052744 | 5 | 337 | 0.0 | 0.0 | 0.00 | 0.10 | 0.00 | 91 | 1009.3 |
| 20260507052244 | 5 | 337 | 0.0 | 0.0 | 0.00 | 0.10 | 0.00 | 91 | 1009.3 |
| 20260507051243 | 5 | 337 | 0.0 | 0.0 | 0.00 | 0.10 | 0.00 | 91 | 1009.0 |
| 20260507050743 | 5 | 337 | 0.0 | 0.0 | 0.00 | 0.10 | 0.00 | 91 | 1009.0 |
| 20260507050243 | 5 | 337 | 0.0 | 0.0 | 0.00 | 0.10 | 0.00 | 91 | 1008.9 |
| 20260507045243 | 5 | 337 | 0.0 | 0.0 | 0.00 | 0.10 | 0.00 | 91 | 1008.9 |
| 20260507044742 | 5 | 337 | 0.0 | 0.0 | 0.00 | 0.10 | 0.00 | 91 | 1008.9 |
| 20260507044242 | 5 | 337 | 0.0 | 0.0 | 0.00 | 0.10 | 0.00 | 91 | 1008.8 |
| 20260507043741 | 5 | 337 | 0.0 | 0.0 | 0.00 | 0.10 | 0.00 | 91 | 1008.8 |
| 20260507043241 | 5 | 337 | 0.0 | 0.0 | 0.00 | 0.10 | 0.00 | 91 | 1008.8 |
| 20260507042741 | 5 | 337 | 0.0 | 0.0 | 0.00 | 0.10 | 0.00 | 91 | 1008.7 |
| 20260507041740 | 5 | 337 | 0.0 | 0.0 | 0.00 | 0.10 | 0.00 | 91 | 1008.7 |
| 20260507041240 | 5 | 337 | 0.0 | 0.0 | 0.00 | 0.10 | 0.00 | 91 | 1008.6 |
| 20260507040740 | 5 | 337 | 0.0 | 0.0 | 0.00 | 0.10 | 0.00 | 91 | 1008.6 |
| 20260507040239 | 5 | 337 | 0.0 | 0.0 | 0.00 | 0.10 | 0.00 | 91 | 1008.4 |
| 20260507035739 | 5 | 337 | 0.0 | 0.0 | 0.00 | 0.10 | 0.00 | 91 | 1008.4 |
| 20260507035239 | 5 | 337 | 0.0 | 0.0 | 0.00 | 0.10 | 0.00 | 91 | 1008.4 |
| 20260507034745 | 5 | 337 | 0.0 | 0.0 | 0.00 | 0.10 | 0.00 | 91 | 1008.4 |
| 20260507034738 | 5 | 337 | 0.0 | 0.0 | 0.00 | 0.10 | 0.00 | 91 | 1008.4 |
| 20260507034238 | 5 | 337 | 0.0 | 0.0 | 0.00 | 0.10 | 0.00 | 91 | 1008.5 |
| 20260507033738 | 5 | 337 | 0.0 | 0.0 | 0.00 | 0.10 | 0.00 | 91 | 1008.4 |
| 20260507033238 | 5 | 337 | 0.0 | 0.0 | 0.00 | 0.10 | 0.00 | 91 | 1008.4 |
| 20260507032737 | 5 | 337 | 0.0 | 0.0 | 0.00 | 0.10 | 0.00 | 91 | 1008.3 |
| 20260507032237 | 6 | 337 | 0.0 | 0.0 | 0.00 | 0.10 | 0.00 | 91 | 1008.4 |
| 20260507031737 | 6 | 337 | 0.0 | 0.0 | 0.00 | 0.10 | 0.00 | 91 | 1008.1 |
| 20260507031242 | 6 | 337 | 0.0 | 0.0 | 0.00 | 0.10 | 0.00 | 91 | 1008.2 |
| 20260507031236 | 6 | 337 | 0.0 | 0.0 | 0.00 | 0.10 | 0.00 | 91 | 1008.2 |
| 20260507030736 | 6 | 337 | 0.0 | 0.0 | 0.00 | 0.10 | 0.00 | 91 | 1008.1 |
| 20260507030236 | 6 | 337 | 0.0 | 0.0 | 0.00 | 0.10 | 0.00 | 91 | 1008.0 |
| 20260507025736 | 6 | 337 | 0.0 | 0.0 | 0.00 | 0.10 | 0.00 | 91 | 1007.9 |
| 20260507025236 | 6 | 337 | 0.0 | 0.0 | 0.00 | 0.10 | 0.00 | 91 | 1007.9 |
| 20260507024735 | 6 | 337 | 0.0 | 0.0 | 0.00 | 0.10 | 0.00 | 91 | 1007.8 |
| 20260507024235 | 6 | 337 | 0.0 | 0.0 | 0.00 | 0.10 | 0.00 | 91 | 1007.9 |
| 20260507023234 | 6 | 337 | 0.0 | 0.0 | 0.00 | 0.10 | 0.00 | 91 | 1007.8 |
| 20260507022734 | 6 | 337 | 0.0 | 0.0 | 0.00 | 0.10 | 0.00 | 92 | 1007.9 |
| 20260507022234 | 6 | 337 | 0.0 | 0.0 | 0.00 | 0.10 | 0.00 | 92 | 1007.9 |
| 20260507021233 | 6 | 337 | 0.0 | 0.0 | 0.00 | 0.10 | 0.00 | 92 | 1007.8 |
| 20260507020733 | 6 | 337 | 0.0 | 0.0 | 0.00 | 0.10 | 0.00 | 92 | 1007.8 |
| 20260507020233 | 6 | 337 | 0.0 | 0.0 | 0.00 | 0.10 | 0.00 | 92 | 1007.7 |
| 20260507015732 | 6 | 337 | 0.0 | 0.0 | 0.00 | 0.10 | 0.00 | 92 | 1007.8 |
| 20260507015232 | 6 | 337 | 0.0 | 0.0 | 0.00 | 0.10 | 0.00 | 92 | 1007.6 |
| 20260507014732 | 6 | 337 | 0.0 | 0.0 | 0.00 | 0.10 | 0.00 | 92 | 1007.6 |
| 20260507014231 | 6 | 337 | 0.0 | 0.0 | 0.00 | 0.10 | 0.00 | 92 | 1007.7 |
| 20260507013731 | 6 | 337 | 0.0 | 0.0 | 0.00 | 0.10 | 0.00 | 92 | 1007.6 |
| 20260507013231 | 6 | 337 | 0.0 | 0.0 | 0.00 | 0.10 | 0.00 | 92 | 1007.6 |
| 20260507012731 | 6 | 337 | 0.0 | 0.0 | 0.00 | 0.10 | 0.00 | 92 | 1007.7 |
| 20260507012230 | 6 | 337 | 0.0 | 0.0 | 0.00 | 0.10 | 0.00 | 92 | 1007.6 |
| 20260507011730 | 6 | 337 | 0.0 | 0.0 | 0.00 | 0.10 | 0.00 | 92 | 1007.6 |
| 20260507011230 | 6 | 337 | 0.0 | 0.0 | 0.00 | 0.10 | 0.00 | 91 | 1007.6 |
| 20260507010729 | 6 | 337 | 0.0 | 0.0 | 0.00 | 0.10 | 0.00 | 91 | 1007.6 |
| 20260507005729 | 6 | 337 | 0.0 | 0.0 | 0.00 | 0.20 | 0.00 | 91 | 1007.4 |
| 20260507005229 | 6 | 337 | 0.0 | 0.0 | 0.00 | 0.20 | 0.00 | 92 | 1007.4 |
| 20260507004228 | 6 | 337 | 0.0 | 0.0 | 0.00 | 0.20 | 0.00 | 92 | 1007.4 |
| 20260507003728 | 6 | 337 | 0.0 | 0.0 | 0.00 | 0.20 | 0.00 | 92 | 1007.3 |
| 20260507003227 | 6 | 337 | 0.0 | 0.0 | 0.00 | 0.20 | 0.00 | 92 | 1007.3 |
| 20260507002727 | 6 | 337 | 0.0 | 0.0 | 0.00 | 0.20 | 0.00 | 92 | 1007.2 |
| 20260507002227 | 6 | 337 | 0.0 | 0.0 | 0.00 | 0.20 | 0.00 | 92 | 1007.2 |
| 20260507001727 | 6 | 337 | 0.0 | 0.0 | 0.00 | 0.20 | 0.00 | 92 | 1007.3 |
| 20260507001226 | 6 | 337 | 0.0 | 0.0 | 0.00 | 0.20 | 0.00 | 92 | 1007.3 |
| 20260507000726 | 6 | 337 | 0.0 | 0.0 | 0.00 | 0.20 | 0.00 | 92 | 1007.2 |
| 20260507000226 | 6 | 337 | 0.0 | 0.0 | 0.00 | 0.20 | 0.00 | 92 | 1007.3 |
| 20260506235725 | 6 | 337 | 0.0 | 0.0 | 0.00 | 0.41 | 0.00 | 92 | 1007.2 |
| 20260506235225 | 6 | 337 | 0.0 | 0.0 | 0.00 | 0.41 | 0.00 | 92 | 1007.1 |
| 20260506234725 | 6 | 337 | 0.0 | 0.0 | 0.00 | 0.41 | 0.00 | 92 | 1007.1 |
| 20260506234225 | 6 | 337 | 0.0 | 0.0 | 0.00 | 0.41 | 0.00 | 92 | 1007.2 |
| 20260506233724 | 6 | 337 | 0.0 | 0.0 | 0.00 | 0.41 | 0.00 | 92 | 1007.2 |
| 20260506233224 | 6 | 337 | 0.0 | 0.0 | 0.00 | 0.41 | 0.00 | 92 | 1007.3 |
| 20260506232724 | 6 | 337 | 0.0 | 0.0 | 0.00 | 0.41 | 0.00 | 92 | 1007.2 |
| 20260506232224 | 6 | 337 | 0.0 | 0.0 | 0.00 | 0.41 | 0.00 | 91 | 1007.2 |
| 20260506231723 | 6 | 337 | 0.0 | 0.0 | 0.00 | 0.41 | 0.00 | 91 | 1007.2 |
| 20260506231223 | 6 | 337 | 0.0 | 0.0 | 0.00 | 0.41 | 0.00 | 91 | 1007.2 |
| 20260506230222 | 6 | 337 | 0.0 | 0.0 | 0.00 | 0.41 | 0.00 | 91 | 1007.2 |
| 20260506225722 | 6 | 337 | 0.0 | 0.0 | 0.00 | 0.46 | 0.00 | 91 | 1007.2 |
| 20260506225222 | 6 | 337 | 0.0 | 0.0 | 0.00 | 0.46 | 0.00 | 91 | 1007.1 |
| 20260506224722 | 6 | 337 | 0.0 | 0.0 | 0.00 | 0.46 | 0.00 | 91 | 1007.1 |
| 20260506224221 | 6 | 337 | 0.0 | 0.0 | 0.00 | 0.46 | 0.00 | 91 | 1007.2 |
| 20260506223721 | 6 | 337 | 0.0 | 0.0 | 0.00 | 0.46 | 0.00 | 91 | 1007.0 |
| 20260506223221 | 6 | 337 | 0.0 | 0.0 | 0.00 | 0.46 | 0.00 | 91 | 1007.2 |
| 20260506222720 | 6 | 337 | 0.0 | 0.0 | 0.00 | 0.46 | 0.00 | 91 | 1007.0 |
| 20260506222220 | 6 | 337 | 0.0 | 0.0 | 0.00 | 0.46 | 0.00 | 91 | 1007.0 |
| 20260506221720 | 6 | 337 | 0.0 | 0.0 | 0.00 | 0.46 | 0.00 | 91 | 1007.1 |
| 20260506221220 | 6 | 337 | 0.0 | 0.0 | 0.00 | 0.46 | 0.00 | 91 | 1007.1 |
| 20260506220719 | 6 | 337 | 0.0 | 0.0 | 0.00 | 0.46 | 0.00 | 91 | 1007.0 |
| 20260506220219 | 6 | 337 | 0.0 | 0.0 | 0.00 | 0.46 | 0.00 | 91 | 1006.9 |
| 20260506215719 | 6 | 337 | 0.0 | 0.0 | 0.00 | 0.51 | 0.00 | 91 | 1006.8 |
| 20260506215218 | 6 | 337 | 0.0 | 0.0 | 0.00 | 0.51 | 0.00 | 91 | 1006.8 |
| 20260506214718 | 6 | 337 | 0.0 | 0.0 | 0.00 | 0.51 | 0.00 | 91 | 1006.7 |
| 20260506214218 | 6 | 337 | 0.0 | 0.0 | 0.00 | 0.51 | 0.00 | 91 | 1006.7 |
| 20260506213718 | 6 | 337 | 0.0 | 0.0 | 0.00 | 0.51 | 0.00 | 91 | 1006.6 |
| 20260506213217 | 6 | 337 | 0.0 | 0.0 | 0.00 | 0.51 | 0.00 | 91 | 1006.5 |
| 20260506212717 | 6 | 337 | 0.0 | 0.0 | 0.00 | 0.51 | 0.00 | 91 | 1006.5 |
| 20260506212217 | 6 | 337 | 0.0 | 0.0 | 0.00 | 0.51 | 0.00 | 91 | 1006.3 |
| 20260506211717 | 6 | 337 | 0.0 | 0.0 | 0.00 | 0.51 | 0.00 | 91 | 1006.4 |
| 20260506211216 | 6 | 337 | 0.0 | 0.0 | 0.00 | 0.51 | 0.00 | 91 | 1006.3 |
| 20260506210716 | 6 | 337 | 0.0 | 0.0 | 0.00 | 0.51 | 0.00 | 91 | 1006.3 |
| 20260506210216 | 6 | 337 | 0.0 | 0.0 | 0.00 | 0.51 | 0.00 | 91 | 1006.3 |
| 20260506205715 | 6 | 337 | 0.0 | 0.0 | 0.00 | 0.56 | 0.00 | 91 | 1006.2 |
| 20260506205215 | 6 | 337 | 0.0 | 0.0 | 0.00 | 0.56 | 0.00 | 91 | 1006.2 |
| 20260506204715 | 6 | 337 | 0.0 | 0.0 | 0.00 | 0.56 | 0.00 | 91 | 1006.2 |
| 20260506204215 | 6 | 337 | 0.0 | 0.0 | 0.00 | 0.56 | 0.00 | 91 | 1006.2 |
| 20260506203714 | 6 | 337 | 0.0 | 0.0 | 0.00 | 0.56 | 0.00 | 91 | 1006.3 |
| 20260506203214 | 6 | 337 | 0.0 | 0.0 | 0.00 | 0.56 | 0.00 | 91 | 1006.3 |
| 20260506202714 | 6 | 337 | 0.0 | 0.0 | 0.00 | 0.56 | 0.00 | 91 | 1006.3 |
| 20260506202213 | 6 | 337 | 0.0 | 0.0 | 0.00 | 0.56 | 0.00 | 91 | 1006.2 |
| 20260506201713 | 6 | 337 | 0.0 | 0.0 | 0.00 | 0.56 | 0.00 | 91 | 1006.2 |
| 20260506201213 | 6 | 337 | 0.0 | 0.0 | 0.00 | 0.56 | 0.00 | 91 | 1006.3 |
| 20260506200713 | 6 | 337 | 0.0 | 0.0 | 0.00 | 0.56 | 0.00 | 91 | 1006.3 |
| 20260506200212 | 6 | 337 | 0.0 | 0.0 | 0.00 | 0.56 | 0.00 | 91 | 1006.2 |
| 20260506195212 | 6 | 337 | 0.0 | 0.0 | 0.00 | 0.61 | 0.00 | 91 | 1006.1 |
| 20260506194711 | 6 | 337 | 0.0 | 0.0 | 0.00 | 0.61 | 0.00 | 91 | 1006.0 |
| 20260506194211 | 6 | 337 | 0.0 | 0.0 | 0.00 | 0.61 | 0.00 | 91 | 1005.9 |
| 20260506193711 | 6 | 337 | 0.0 | 0.0 | 0.00 | 0.61 | 0.00 | 91 | 1005.8 |
| 20260506193211 | 6 | 337 | 0.0 | 0.0 | 0.00 | 0.61 | 0.00 | 91 | 1005.6 |
| 20260506192710 | 6 | 337 | 0.0 | 0.0 | 0.00 | 0.61 | 0.00 | 91 | 1005.7 |
| 20260506192210 | 6 | 337 | 0.0 | 0.0 | 0.00 | 0.61 | 0.00 | 91 | 1005.7 |
| 20260506191745 | 6 | 337 | 0.0 | 0.0 | 0.00 | 0.61 | 0.00 | 91 | 1005.6 |
| 20260506191710 | 6 | 337 | 0.0 | 0.0 | 0.00 | 0.61 | 0.00 | 91 | 1005.6 |
| 20260506191210 | 6 | 337 | 0.0 | 0.0 | 0.00 | 0.61 | 0.00 | 91 | 1005.6 |
| 20260506190709 | 6 | 337 | 0.0 | 0.0 | 0.00 | 0.61 | 0.00 | 91 | 1005.3 |
| 20260506190209 | 6 | 337 | 0.0 | 0.0 | 0.00 | 0.61 | 0.00 | 91 | 1005.2 |
| 20260506185709 | 6 | 337 | 0.0 | 0.0 | 0.00 | 0.61 | 0.00 | 91 | 1005.2 |
| 20260506185208 | 6 | 337 | 0.0 | 0.0 | 0.00 | 0.61 | 0.00 | 91 | 1005.2 |
| 20260506184708 | 6 | 337 | 0.0 | 0.0 | 0.00 | 0.61 | 0.00 | 91 | 1005.2 |
| 20260506184208 | 6 | 337 | 0.0 | 0.0 | 0.00 | 0.61 | 0.00 | 91 | 1005.0 |
| 20260506183708 | 6 | 337 | 0.0 | 0.0 | 0.00 | 0.61 | 0.00 | 91 | 1004.9 |
| 20260506183207 | 6 | 337 | 0.0 | 0.0 | 0.00 | 0.61 | 0.00 | 91 | 1004.9 |
| 20260506182707 | 6 | 315 | 0.0 | 0.0 | 0.00 | 0.61 | 0.00 | 91 | 1004.9 |
| 20260506182207 | 6 | 315 | 0.0 | 0.0 | 0.00 | 0.61 | 0.00 | 91 | 1004.9 |
| 20260506181706 | 6 | 0 | 0.0 | 0.0 | 0.00 | 0.61 | 0.00 | 91 | 1004.8 |
| 20260506181206 | 6 | 315 | 0.0 | 0.0 | 0.00 | 0.61 | 0.00 | 91 | 1004.6 |
| 20260506180206 | 7 | 315 | 0.0 | 0.0 | 0.00 | 0.61 | 0.00 | 90 | 1004.6 |
| 20260506175705 | 7 | 315 | 0.0 | 0.0 | 0.00 | 0.66 | 0.00 | 90 | 1004.7 |
| 20260506175205 | 7 | 315 | 0.0 | 0.0 | 0.00 | 0.66 | 0.00 | 90 | 1004.7 |
| 20260506174705 | 7 | 315 | 0.0 | 0.0 | 0.00 | 0.66 | 0.00 | 90 | 1004.7 |
| 20260506174204 | 7 | 315 | 0.0 | 0.0 | 0.00 | 0.66 | 0.00 | 90 | 1004.6 |
| 20260506173704 | 7 | 315 | 0.0 | 0.0 | 0.00 | 0.66 | 0.00 | 90 | 1004.8 |
| 20260506173204 | 7 | 315 | 0.0 | 0.0 | 0.00 | 0.66 | 0.00 | 90 | 1004.6 |
| 20260506172704 | 7 | 315 | 0.0 | 0.0 | 0.00 | 0.66 | 0.00 | 90 | 1004.6 |
| 20260506172203 | 7 | 315 | 0.0 | 0.0 | 0.00 | 0.66 | 0.00 | 90 | 1004.8 |
| 20260506171703 | 7 | 315 | 0.0 | 0.0 | 0.00 | 0.66 | 0.00 | 89 | 1004.8 |
| 20260506171203 | 7 | 315 | 0.0 | 0.0 | 0.00 | 0.66 | 0.00 | 89 | 1004.7 |
| 20260506170703 | 7 | 315 | 0.0 | 0.0 | 0.00 | 0.66 | 0.00 | 89 | 1004.8 |
| 20260506165702 | 7 | 315 | 0.0 | 0.0 | 0.00 | 0.71 | 0.00 | 89 | 1004.6 |
| 20260506165202 | 7 | 315 | 0.0 | 0.0 | 0.00 | 0.71 | 0.00 | 89 | 1004.5 |
| 20260506163201 | 7 | 315 | 0.0 | 0.0 | 0.00 | 0.71 | 0.00 | 89 | 1004.4 |
| 20260506162200 | 8 | 315 | 0.0 | 0.0 | 0.00 | 0.71 | 0.00 | 88 | 1004.6 |
| 20260506161700 | 8 | 315 | 0.0 | 0.0 | 0.00 | 0.71 | 0.00 | 88 | 1004.4 |
| 20260506161159 | 8 | 315 | 0.0 | 0.0 | 0.00 | 0.71 | 0.00 | 88 | 1004.3 |
| 20260506155158 | 8 | 337 | 0.0 | 0.0 | 0.00 | 0.76 | 0.00 | 89 | 1004.2 |
| 20260506154658 | 8 | 337 | 0.0 | 0.0 | 0.00 | 0.76 | 0.00 | 89 | 1004.2 |
| 20260506154158 | 8 | 337 | 0.0 | 0.0 | 0.05 | 0.76 | 0.00 | 89 | 1004.1 |
| 20260506152157 | 8 | 337 | 0.0 | 0.0 | 0.05 | 0.76 | 0.00 | 90 | 1004.0 |
| 20260506151656 | 8 | 315 | 0.0 | 0.0 | 0.05 | 0.76 | 0.00 | 90 | 1003.9 |
| 20260506151156 | 8 | 337 | 0.0 | 0.0 | 0.05 | 0.76 | 0.00 | 90 | 1004.0 |
| 20260506150656 | 8 | 337 | 0.0 | 0.0 | 0.05 | 0.76 | 0.00 | 91 | 1003.9 |
| 20260506145655 | 8 | 337 | 0.0 | 0.0 | 0.05 | 0.81 | 0.00 | 91 | 1004.0 |
| 20260506145155 | 8 | 337 | 0.0 | 0.0 | 0.05 | 0.81 | 0.00 | 91 | 1004.0 |
| 20260506144655 | 8 | 0 | 0.0 | 0.0 | 0.00 | 0.76 | 0.00 | 91 | 1004.0 |
| 20260506144154 | 8 | 315 | 0.0 | 0.0 | 0.00 | 0.76 | 0.00 | 91 | 1004.0 |
| 20260506143654 | 8 | 315 | 0.0 | 0.0 | 0.00 | 0.76 | 0.00 | 91 | 1004.0 |
| 20260506143154 | 8 | 315 | 0.0 | 0.0 | 0.00 | 0.76 | 0.00 | 90 | 1004.0 |
| 20260506142654 | 8 | 292 | 0.0 | 0.0 | 0.00 | 0.76 | 0.00 | 90 | 1004.0 |
| 20260506142153 | 8 | 315 | 0.0 | 0.0 | 0.00 | 0.76 | 0.00 | 90 | 1004.0 |
| 20260506141653 | 8 | 292 | 0.0 | 0.0 | 0.00 | 0.76 | 0.00 | 90 | 1004.0 |
| 20260506141153 | 8 | 315 | 0.0 | 0.0 | 0.00 | 0.76 | 0.00 | 90 | 1003.9 |
| 20260506140152 | 8 | 337 | 0.0 | 0.0 | 0.00 | 0.76 | 0.00 | 90 | 1004.0 |
| 20260506133651 | 8 | 315 | 0.0 | 0.0 | 0.00 | 1.02 | 0.00 | 90 | 1003.9 |
| 20260506133150 | 8 | 315 | 0.0 | 0.0 | 0.00 | 1.02 | 0.00 | 90 | 1003.8 |
| 20260506132650 | 8 | 315 | 0.0 | 0.0 | 0.00 | 1.02 | 0.00 | 90 | 1003.8 |
| 20260506132150 | 8 | 315 | 0.0 | 0.0 | 0.00 | 1.02 | 0.00 | 90 | 1003.8 |
| 20260506131650 | 8 | 315 | 0.0 | 0.0 | 0.00 | 1.02 | 0.00 | 90 | 1003.8 |
| 20260506131149 | 9 | 315 | 0.0 | 0.0 | 0.00 | 1.02 | 0.00 | 90 | 1003.8 |
| 20260506130649 | 9 | 292 | 0.0 | 0.0 | 0.00 | 1.02 | 0.00 | 90 | 1003.8 |
| 20260506130149 | 9 | 315 | 0.0 | 0.0 | 0.00 | 1.02 | 0.00 | 90 | 1003.8 |
| 20260506125148 | 9 | 315 | 0.0 | 0.0 | 0.00 | 1.50 | 0.00 | 90 | 1003.6 |
| 20260506124148 | 9 | 337 | 0.0 | 0.0 | 0.00 | 1.50 | 0.00 | 90 | 1003.5 |
| 20260506123647 | 9 | 337 | 0.0 | 0.0 | 0.00 | 1.50 | 0.00 | 90 | 1003.6 |
| 20260506122647 | 9 | 337 | 0.0 | 0.0 | 0.00 | 1.50 | 0.00 | 90 | 1003.3 |
| 20260506122146 | 9 | 315 | 0.0 | 0.0 | 0.00 | 1.50 | 0.00 | 90 | 1003.3 |
| 20260506121646 | 9 | 315 | 0.0 | 0.0 | 0.00 | 1.50 | 0.00 | 90 | 1003.3 |
| 20260506121146 | 9 | 337 | 0.0 | 0.0 | 0.00 | 1.50 | 0.00 | 89 | 1003.3 |
| 20260506120646 | 9 | 292 | 0.0 | 0.0 | 0.00 | 1.50 | 0.00 | 89 | 1003.4 |
| 20260506120145 | 9 | 337 | 0.0 | 0.0 | 0.00 | 1.50 | 0.00 | 89 | 1003.3 |
| 20260506115912 | 9 | 337 | 0.0 | 0.0 | 0.00 | 1.55 | 0.00 | 89 | 1003.3 |
| 20260506115645 | 9 | 337 | 0.0 | 0.0 | 0.00 | 1.55 | 0.00 | 89 | 1003.3 |
| 20260506115145 | 9 | 315 | 0.0 | 0.0 | 0.00 | 1.55 | 0.00 | 88 | 1003.2 |
| 20260506114645 | 10 | 337 | 0.0 | 0.0 | 0.00 | 1.55 | 0.00 | 89 | 1003.2 |
| 20260506114144 | 10 | 292 | 0.0 | 0.0 | 0.00 | 1.55 | 0.00 | 89 | 1003.3 |